Погода в Кишкенеколе

Казахстан     53°38′24″N   72°19′51″E
темп.,
°C
ветер,
м/с
пор.,
м/с
влажн.,
%
обл.,
%
осадки,
мм/ч
давл.,
гПа
погр.,
м
21 января, чт
чт2100:00−15юз5118875 0.2 1016238
03:00−17юз6128854 0.0 1017242
06:00−19юз599067 0.0 1018139
09:00−20юз469271 0.0 101789
12:00−18юз489185 0.0 1018209
15:00−17зюз3892100 0.0 1015342
18:00−19з3593100 0.0 1015107
21:00−22з4595100 0.0 101573
22 января, пт
пт2200:00−25з479657 0.0 1015107
03:00−27з479773 0.0 1015109
06:00−27з479876 0.0 1016111
09:00−28з469819 0.0 101792
12:00−25зюз469742 0.0 1018178
15:00−22зюз479687 0.1 1019260
18:00−22зюз349893 0.1 101952
21:00−21з339999 0.1 102152
23 января, сб
сб2300:00−21зюз3698100 0.1 1022169
03:00−22з359997 0.1 1024125
06:00−25з349993 0.1 102634
09:00−26зсз339999 0.0 102935
12:00−27сз3598100 0.1 1031182
15:00−29сз469693 0.0 1033246
18:00−33зсз459584 0.0 103682
21:00−35зсз449552 0.0 103959
24 января, вс
вс2400:00−36зсз349657 0.0 104051
03:00−35з349594 0.0 104193
06:00−34з239497 0.0 104163
09:00−33зюз2393100 0.0 104281
12:00−30ююз1287100 0.0 1042121
15:00−28ююв238989 0.0 1042167
18:00−30юв349153 0.0 104241
21:00−30юв459213 0.0 104273
25 января, пн
пн2500:00−28юв579554 0.0 1041113
03:00−27юв579685 0.0 1040128
06:00−25юв589792 0.0 1038182
09:00−22юв5996100 0.2 1037212
12:00−18ююв589598 0.3 1034229
15:00−14ююв469598 0.1 1032239
18:00−12ю359699 0.2 1031127
21:00−8юз4896100 0.8 1030272